Date,TemperatureHighF,TemperatureAvgF,TemperatureLowF,DewpointHighF,DewpointAvgF,DewpointLowF,HumidityHigh,HumidityAvg,HumidityLow,PressureMaxIn,PressureMinIn,WindSpeedMaxMPH,WindSpeedAvgMPH,GustSpeedMaxMPH,PrecipitationSumIn
2013-1-1,47,40,35,45,35,26,94,82,69,30.20,29.92,13,6,13,0.01
2013-1-2,42,35,28,30,27,23,85,73,59,30.26,30.15,9,3,9,0.00
2013-1-3,50,39,26,32,28,23,92,67,40,30.37,30.23,14,3,14,0.00
2013-1-4,52,45,40,35,32,30,71,60,43,30.42,30.25,8,2,8,0.00
2013-1-5,57,45,36,41,37,31,93,74,46,30.26,30.09,11,3,11,0.00
2013-1-6,58,42,32,32,26,17,91,57,21,30.30,30.18,11,3,11,0.00
2013-1-7,57,42,26,35,30,22,89,64,39,30.24,29.99,13,2,13,0.00
2013-1-8,50,48,46,48,42,33,99,84,61,30.01,29.86,13,4,13,1.19
2013-1-9,57,54,48,57,54,48,99,99,97,30.02,29.80,27,8,27,0.97
2013-1-10,60,55,50,56,50,0,99,85,10,29.88,29.79,17,5,17,0.02
2013-1-11,73,61,48,63,51,44,92,71,36,29.84,29.64,24,6,24,0.00
2013-1-12,66,54,35,65,51,27,99,87,66,29.87,29.58,21,6,21,0.07
2013-1-13,44,36,31,27,21,18,72,55,41,30.19,29.83,18,8,18,0.00
2013-1-14,46,36,29,26,20,16,61,51,35,30.25,30.11,17,7,17,0.00
2013-1-15,39,35,30,30,25,18,94,67,51,30.15,30.06,17,6,17,0.02
2013-1-16,51,37,25,29,18,7,72,49,18,30.21,30.06,12,2,12,0.00
2013-1-17,61,45,30,34,29,24,81,56,24,30.39,30.14,14,2,14,0.00
2013-1-18,64,47,30,40,31,26,94,59,24,30.40,30.15,17,4,17,0.00
2013-1-19,70,54,38,46,40,33,89,62,36,30.16,29.72,16,4,16,0.00
2013-1-20,72,55,36,48,41,34,99,65,27,29.73,29.56,10,2,10,0.00
2013-1-21,57,47,41,43,31,23,91,57,36,29.83,29.62,14,4,14,0.00
2013-1-22,68,52,37,48,38,27,82,61,41,29.82,29.67,16,3,16,0.00
2013-1-23,77,63,51,56,52,46,90,69,42,29.78,29.62,21,5,21,0.00
2013-1-24,82,64,50,59,53,44,99,70,42,29.69,29.52,11,3,11,0.00
2013-1-25,54,48,45,49,43,38,99,82,68,29.73,29.55,12,4,12,0.00
2013-1-26,55,50,46,50,46,39,99,86,72,29.75,29.60,9,4,9,0.00
2013-1-27,76,63,50,64,57,50,99,83,52,29.61,29.41,21,7,21,0.00
2013-1-28,78,72,68,67,65,62,92,78,59,29.51,29.34,23,9,23,0.00
2013-1-29,80,67,54,67,59,28,95,76,34,29.35,28.95,24,9,24,0.26
2013-1-30,55,47,35,37,24,8,70,44,16,29.66,29.18,30,6,30,0.00
2013-1-31,71,51,31,31,20,7,73,39,10,29.84,29.58,30,5,30,0.00
2013-2-1,61,45,31,40,25,15,70,46,27,29.92,29.66,17,5,17,0.00
2013-2-2,68,56,44,46,36,24,83,51,20,29.85,29.64,14,4,14,0.00
2013-2-3,72,54,35,42,26,8,89,44,10,29.85,29.49,14,3,14,0.00
2013-2-4,76,64,55,57,49,22,90,62,23,29.49,29.28,18,6,18,0.00
2013-2-5,68,61,58,61,59,57,99,92,75,29.91,29.38,11,4,11,0.00
2013-2-6,77,64,56,65,58,53,99,82,44,29.90,29.73,19,6,19,0.01
2013-2-7,82,66,54,60,54,33,97,69,20,30.01,29.68,21,9,21,0.00
2013-2-8,67,53,42,45,29,6,80,47,10,30.16,30.01,17,5,17,0.00
2013-2-9,60,52,47,59,47,34,99,85,56,30.03,29.62,21,7,21,0.01
2013-2-10,70,59,44,66,33,7,99,51,10,29.91,29.53,24,5,24,0.63
2013-2-11,57,52,44,40,32,23,77,49,30,30.06,29.88,18,6,18,0.00
2013-2-12,49,47,42,48,45,37,99,92,72,29.95,29.75,18,4,18,0.30
2013-2-13,61,48,39,38,34,25,88,62,27,30.06,29.91,13,3,13,0.00
2013-2-14,72,54,35,45,32,11,99,54,10,30.00,29.88,10,2,10,0.00
2013-2-15,53,47,35,41,26,8,75,46,17,30.29,29.99,24,7,24,0.00
2013-2-16,59,44,28,29,23,17,77,47,21,30.32,30.06,11,2,11,0.00
2013-2-17,74,56,34,46,28,12,87,44,10,30.06,29.78,23,7,23,0.00
2013-2-18,78,63,51,57,42,22,83,51,16,30.03,29.65,27,9,27,0.00
2013-2-19,63,52,37,33,21,5,72,34,11,30.23,30.01,16,5,16,0.00
2013-2-20,53,45,42,42,38,29,89,76,39,30.07,29.67,20,9,20,0.17
2013-2-21,70,53,43,50,36,9,99,63,10,29.83,29.49,27,8,27,0.17
2013-2-22,50,40,31,38,25,18,81,57,35,30.06,29.82,15,5,15,0.00
2013-2-23,38,35,34,29,26,24,74,71,63,30.01,29.45,9,3,9,0.00
2013-2-24,72,58,39,45,36,29,67,47,30,29.82,29.49,20,7,20,0.00
2013-2-25,61,52,41,51,40,25,84,66,30,29.60,29.36,29,10,29,0.02
2013-2-26,60,48,40,34,31,25,74,56,27,29.80,29.59,27,6,27,0.00
2013-2-27,58,47,37,33,24,1,82,47,13,30.14,29.78,19,6,19,0.00
2013-2-28,42,38,37,28,28,24,70,68,50,30.21,30.07,18,6,18,0.00
2013-3-1,37,37,37,28,28,28,70,70,70,30.21,30.07,15,4,15,0.00
2013-3-2,37,37,37,28,28,28,70,70,70,30.34,30.12,11,7,11,0.00
2013-3-3,74,49,37,40,29,13,70,54,10,30.12,29.68,24,7,24,0.00
2013-3-4,90,70,56,49,37,20,61,36,10,29.70,29.47,24,8,24,0.00
2013-3-5,60,51,43,44,18,-1,66,32,11,30.28,29.71,30,10,30,0.00
2013-3-6,42,40,39,21,21,18,47,47,37,30.36,30.10,99,3,99,0.00
2013-3-7,39,39,39,21,21,21,47,47,47,30.13,29.97,20,4,20,0.00
2013-3-8,39,13,0,21,21,21,47,15,47,30.07,29.86,17,3,17,0.00
2013-3-9,0,0,0,21,21,21,0,0,100,29.92,29.54,0,0,0,0.00
2013-3-10,55,49,40,35,31,28,73,51,39,29.92,29.92,20,6,20,0.00
2013-3-11,63,46,34,32,22,6,82,45,12,29.92,29.92,14,3,14,0.00
2013-3-12,69,54,38,32,23,9,71,38,10,29.92,29.92,17,4,17,0.00
2013-3-13,72,56,40,40,32,18,83,46,13,29.92,29.92,14,3,14,0.00
2013-3-14,81,64,44,45,39,32,74,43,21,29.92,29.92,17,5,17,0.00
2013-3-15,84,70,55,53,45,35,83,46,18,29.92,29.92,20,8,20,0.00
2013-3-16,84,72,58,58,53,45,82,53,39,29.92,29.92,24,10,24,0.00
2013-3-17,74,67,59,61,53,45,83,61,41,29.92,29.92,18,5,18,0.00
2013-3-18,71,63,57,63,47,36,95,58,38,29.92,29.92,19,6,19,0.00
2013-3-19,70,60,47,44,36,27,66,43,27,29.92,29.92,18,6,18,0.00
2013-3-20,69,58,47,39,26,8,68,34,10,29.92,29.92,17,4,17,0.00
2013-3-21,72,62,53,59,42,26,78,49,30,29.92,29.92,26,9,26,0.00
2013-3-22,66,54,47,61,50,42,93,85,65,29.92,29.92,21,6,21,0.00
2013-3-23,54,50,47,51,47,45,99,90,82,29.92,29.92,22,4,22,0.07
2013-3-24,54,46,38,50,26,8,99,50,21,29.92,29.92,18,8,18,0.01
2013-3-25,56,44,30,24,14,4,64,34,13,29.92,29.92,18,4,18,0.00
2013-3-26,62,45,29,24,17,10,72,38,13,29.92,29.92,9,2,9,0.00
2013-3-27,72,58,42,44,30,21,57,36,19,29.92,29.92,25,7,25,0.00
2013-3-28,71,63,52,58,52,44,82,67,57,29.92,29.92,17,7,17,0.00
2013-3-29,79,69,61,59,57,54,85,67,43,29.92,29.92,19,8,19,0.00
2013-3-30,80,68,55,65,60,54,99,76,52,29.92,29.92,18,4,18,0.67
2013-3-31,76,68,58,64,57,51,94,70,44,29.92,29.92,17,4,17,0.00
2013-4-1,82,67,49,58,48,36,99,58,20,29.92,29.92,11,2,11,0.00
2013-4-2,70,65,54,64,58,43,91,78,52,29.92,29.92,23,6,23,0.02
2013-4-3,55,48,44,50,46,43,99,94,67,29.92,29.92,23,5,23,0.80
2013-4-4,52,46,42,44,41,39,99,83,65,29.92,29.92,11,3,11,0.01
2013-4-5,71,55,38,49,43,37,99,68,35,29.92,29.92,11,3,11,0.00
2013-4-6,79,66,56,58,52,44,78,61,45,29.92,29.92,21,7,21,0.00
2013-4-7,74,68,62,63,60,56,85,76,66,29.92,29.92,24,8,24,0.00
2013-4-8,77,72,66,66,63,59,83,74,65,29.92,29.92,25,8,25,0.00
2013-4-9,82,75,69,68,65,62,86,73,58,29.92,29.92,31,9,31,0.00
2013-4-10,74,47,39,68,42,35,98,85,57,29.92,29.92,15,5,15,0.28
2013-4-11,66,50,40,40,33,27,82,55,27,29.92,29.92,14,3,14,0.00
2013-4-12,80,60,41,50,43,35,98,59,20,29.92,29.92,12,2,12,0.00
2013-4-13,80,68,54,51,47,39,79,49,24,29.92,29.92,21,5,21,0.00
2013-4-14,85,71,57,66,58,48,82,64,45,32.48,29.92,21,6,21,0.00
2013-4-15,90,78,69,69,66,63,91,68,43,32.48,32.48,22,7,22,0.00
2013-4-16,90,79,72,69,66,63,84,66,42,32.48,32.48,23,8,23,0.00
2013-4-17,87,79,72,72,68,66,93,72,51,32.48,32.48,26,11,26,0.00
2013-4-18,78,56,45,72,46,33,99,71,45,32.48,32.42,27,6,27,0.93
2013-4-19,67,51,36,39,27,8,91,49,10,32.48,32.48,14,3,14,0.00
2013-4-20,74,59,42,40,28,12,82,39,10,32.48,32.48,23,6,23,0.00
2013-4-21,74,62,51,51,46,34,73,56,37,32.48,32.48,15,5,15,0.00
2013-4-22,81,69,55,58,54,47,83,60,41,32.48,32.48,22,6,22,0.00
2013-4-23,70,55,41,62,49,38,92,81,65,32.48,32.48,18,5,18,0.02
2013-4-24,62,50,37,38,34,29,89,56,29,32.48,32.48,17,4,17,0.01
2013-4-25,76,64,52,44,37,31,53,38,22,32.48,30.97,14,4,14,0.00
2013-4-26,80,68,62,68,55,42,81,64,44,32.48,32.48,15,5,15,0.00
2013-4-27,78,69,57,67,59,54,94,73,49,32.48,32.48,12,3,12,0.00
2013-4-28,85,68,53,65,59,51,99,76,48,32.48,32.48,11,3,11,0.00
2013-4-29,90,76,59,68,60,53,96,62,30,32.48,32.48,17,4,17,0.00
2013-4-30,85,73,62,65,61,58,90,68,46,32.48,32.48,17,4,17,0.00
2013-5-1,84,74,67,68,64,62,91,74,49,32.48,32.48,14,4,14,0.00
2013-5-2,72,52,44,63,44,34,84,74,64,32.48,32.48,19,6,19,0.00
2013-5-3,69,54,39,36,26,9,77,43,10,32.48,32.48,16,4,16,0.00
2013-5-4,77,59,39,44,28,8,93,44,10,32.48,32.48,17,3,17,0.00
2013-5-5,72,59,45,47,42,38,80,54,34,32.48,32.48,13,3,13,0.00
2013-5-6,81,65,48,55,50,46,95,63,33,32.48,32.48,11,1,11,0.00
2013-5-7,87,73,55,60,53,47,94,54,26,32.48,32.48,11,3,11,0.00
2013-5-8,88,76,63,61,55,47,71,49,29,32.48,32.48,24,5,24,0.00
2013-5-9,78,70,65,68,64,55,97,82,46,32.48,32.48,15,4,15,0.31
2013-5-10,85,74,66,68,63,56,99,73,43,32.48,32.48,11,3,11,0.00
2013-5-11,82,71,60,57,51,40,86,52,26,32.48,32.48,21,4,21,0.00
2013-5-12,82,69,57,54,37,16,66,36,10,32.48,32.48,19,4,19,0.00
2013-5-13,91,74,54,52,46,39,66,40,19,32.48,32.48,14,4,14,0.00
2013-5-14,89,77,59,62,55,48,82,49,26,32.48,32.48,19,5,19,0.00
2013-5-15,78,73,63,71,67,62,95,82,62,32.48,32.48,22,7,22,0.78
2013-5-16,86,72,63,73,67,62,97,84,62,32.48,32.48,14,4,15,0.01
2013-5-17,93,82,74,74,72,69,95,74,49,32.48,32.48,18,5,18,0.00
2013-5-18,95,84,74,73,70,67,86,65,43,32.48,32.48,21,7,21,0.00
2013-5-19,90,82,72,70,68,66,84,64,50,32.48,32.48,25,8,25,0.00
2013-5-20,91,82,75,71,70,67,84,66,50,32.48,32.48,24,8,24,0.00
2013-5-21,83,72,60,72,66,57,97,81,63,32.48,32.48,27,5,27,0.48
2013-5-22,89,72,54,65,58,52,99,67,29,32.48,32.48,9,2,9,0.01
2013-5-23,88,79,71,74,70,61,93,74,56,32.48,32.48,14,4,14,0.00
2013-5-24,86,78,68,74,70,62,96,78,59,32.48,32.48,17,4,17,0.19
2013-5-25,85,73,68,74,69,66,97,87,62,32.48,32.48,15,3,15,0.13
2013-5-26,89,80,72,73,70,69,94,75,53,32.48,32.48,17,5,17,0.00
2013-5-27,88,80,72,70,69,67,85,71,52,32.48,32.48,17,6,17,0.00
2013-5-28,86,80,73,71,68,66,85,67,53,32.48,32.48,27,8,27,0.00
2013-5-29,86,78,71,73,70,66,94,79,62,32.48,32.44,34,9,34,0.30
2013-5-30,91,82,75,73,71,70,86,71,51,32.47,32.47,21,8,21,0.00
2013-5-31,92,84,78,75,73,70,85,71,50,32.47,32.47,20,7,20,0.00
2013-6-1,92,81,78,74,71,66,81,73,53,32.47,32.47,23,6,23,0.00
2013-6-2,87,77,67,66,56,44,81,51,25,32.47,32.47,15,4,15,0.00
2013-6-3,93,78,63,61,58,52,83,53,28,32.47,32.47,11,3,11,0.00
2013-6-4,95,83,73,70,66,60,76,58,40,32.47,32.47,19,6,19,0.00
2013-6-5,94,84,75,71,68,63,82,60,41,32.47,32.47,18,4,18,0.00
2013-6-6,81,74,68,72,68,65,97,81,64,32.47,32.47,15,3,15,0.65
2013-6-7,86,75,63,66,58,51,97,62,31,32.47,32.47,12,2,12,0.00
2013-6-8,91,78,61,67,60,56,95,58,34,32.47,32.47,16,3,16,0.00
2013-6-9,92,80,68,71,67,60,99,68,43,32.47,32.47,15,3,15,0.92
2013-6-10,101,84,68,73,66,55,96,60,24,32.47,32.47,14,3,14,0.00
2013-6-11,95,86,75,75,70,64,88,61,42,32.47,32.47,17,4,17,0.00
2013-6-12,97,86,76,75,70,65,89,62,40,32.47,32.47,13,4,13,0.00
2013-6-13,102,88,75,72,69,65,82,55,32,32.47,32.47,14,3,14,0.00
2013-6-14,101,87,74,73,70,67,85,60,37,32.47,32.47,8,2,8,0.00
2013-6-15,92,84,76,75,72,68,82,68,53,32.47,32.47,18,2,18,0.00
2013-6-16,99,87,74,76,70,64,93,60,38,32.47,32.47,14,3,14,0.00
2013-6-17,96,84,69,76,71,65,98,68,42,32.47,32.47,14,4,14,0.60
2013-6-18,88,78,69,74,71,66,96,80,51,32.47,32.47,14,3,14,0.43
2013-6-19,95,82,70,75,71,65,98,72,49,32.47,32.47,14,3,14,0.00
2013-6-20,96,86,76,73,70,66,83,60,38,32.47,32.47,15,4,15,0.00
2013-6-21,97,88,76,74,68,63,82,55,36,32.47,32.47,17,5,17,0.00
2013-6-22,97,87,76,73,68,64,80,54,38,32.47,32.47,18,5,18,0.00
2013-6-23,97,88,78,73,69,63,81,55,37,32.47,32.47,21,6,21,0.00
2013-6-24,97,88,76,74,68,63,83,53,36,32.47,32.47,19,6,19,0.00
2013-6-25,98,89,78,74,68,62,80,53,35,32.47,32.47,18,7,18,0.00
2013-6-26,101,89,78,73,69,62,81,53,38,32.47,32.47,16,6,16,0.00
2013-6-27,104,91,79,74,70,64,74,51,33,32.47,32.47,11,3,11,0.00
2013-6-28,106,90,77,70,67,60,71,48,25,32.47,32.47,14,3,14,0.00
2013-6-29,100,87,74,72,64,56,86,51,24,32.47,32.47,18,3,18,0.00
2013-6-30,95,84,73,67,59,53,79,45,28,32.47,32.47,17,4,17,0.00
2013-7-1,90,80,68,61,57,51,71,47,28,32.47,32.47,18,4,18,0.00
2013-7-2,91,79,67,60,52,41,67,43,19,32.47,32.47,17,3,17,0.00
2013-7-3,93,78,62,64,52,39,84,46,16,32.47,32.47,14,2,14,0.00
2013-7-4,98,84,72,65,58,48,68,43,20,32.47,32.47,15,4,15,0.00
2013-7-5,99,87,74,65,60,53,65,42,23,32.47,32.47,13,4,13,0.00
2013-7-6,98,88,76,68,62,55,65,43,28,32.47,32.47,16,4,16,0.00
2013-7-7,100,88,76,71,65,60,71,48,31,32.47,32.47,13,4,13,0.00
2013-7-8,100,88,79,76,70,61,80,57,34,32.47,32.47,14,5,14,0.00
2013-7-9,103,90,78,74,65,56,80,47,23,32.47,32.47,14,4,14,0.00
2013-7-10,106,93,82,73,67,60,72,45,25,32.47,32.47,18,4,18,0.00
2013-7-11,105,91,82,72,68,64,70,48,30,32.47,32.47,16,3,16,0.00
2013-7-12,103,90,76,74,69,63,86,55,31,32.47,30.20,14,3,14,0.00
2013-7-13,103,91,81,72,67,60,71,48,31,32.47,32.47,15,4,15,0.00
2013-7-14,85,73,68,71,66,57,98,80,43,32.47,32.47,12,2,12,0.38
2013-7-15,74,71,68,73,70,67,99,97,90,32.47,32.47,8,2,8,0.50
2013-7-16,90,77,71,75,72,68,99,86,50,32.47,32.47,20,3,20,0.69
2013-7-17,92,78,71,77,73,69,99,85,50,32.47,32.47,17,3,17,0.08
2013-7-18,98,82,71,78,72,68,99,73,39,32.47,32.47,11,2,11,0.00
2013-7-19,99,84,73,76,71,65,94,68,35,32.47,32.47,17,2,17,0.00
2013-7-20,99,84,75,74,71,67,87,67,38,0.00,40.00,8,3,8,0.01
2013-7-21,100,91,74,75,71,67,92,53,38,32.47,32.47,12,4,12,0.00
2013-7-22,100,88,78,76,72,68,90,62,37,32.47,32.47,14,4,14,0.00
2013-7-23,101,90,80,76,72,64,83,57,39,32.47,32.47,14,4,14,0.00
2013-7-24,102,87,78,73,69,64,76,56,33,32.47,32.47,17,5,17,0.00
2013-7-25,97,87,77,75,71,66,80,61,42,32.47,32.47,11,3,11,0.00
2013-7-26,96,85,77,81,73,68,93,69,43,32.47,32.47,16,4,16,0.24
2013-7-27,92,82,74,74,66,60,84,61,36,32.47,32.47,14,5,17,0.00
2013-7-28,96,83,68,73,68,65,95,64,39,32.47,32.47,13,3,13,0.00
2013-7-29,98,88,79,76,71,62,84,60,38,32.47,32.47,17,5,17,0.00
2013-7-30,100,89,79,74,69,63,80,54,37,32.47,32.47,14,4,14,0.00
2013-7-31,105,91,79,73,69,65,69,50,32,32.47,32.47,11,3,11,0.00
2013-8-1,105,93,82,78,72,65,80,52,30,32.47,32.47,11,3,11,0.00
2013-8-2,106,93,82,71,68,63,68,45,29,32.47,32.47,15,4,15,0.00
2013-8-3,104,92,80,72,67,62,69,46,29,32.47,32.47,13,4,13,0.00
2013-8-4,104,92,80,74,68,63,77,49,30,32.47,32.47,13,4,13,0.00
2013-8-5,105,93,81,72,67,61,72,46,26,32.47,32.47,15,4,15,0.00
2013-8-6,106,93,80,72,66,60,74,44,25,32.47,32.47,16,4,16,0.00
2013-8-7,109,94,81,72,68,62,71,44,24,32.47,32.47,14,5,14,0.00
2013-8-8,103,92,81,74,68,62,75,48,30,32.47,32.47,12,3,12,0.00
2013-8-9,105,89,77,74,68,60,86,53,27,32.47,32.47,18,3,18,0.14
2013-8-10,99,87,77,77,72,65,92,64,35,32.47,32.47,13,3,13,0.00
2013-8-11,105,91,78,73,69,63,80,52,30,32.47,32.47,17,3,19,0.00
2013-8-12,103,91,79,73,69,64,78,51,32,32.47,32.47,11,3,11,0.00
2013-8-13,102,86,76,81,70,65,96,62,36,32.47,32.47,17,3,17,0.85
2013-8-14,93,80,72,78,74,70,99,86,50,32.47,32.47,13,2,13,1.25
2013-8-15,91,82,73,73,67,62,91,62,42,32.47,32.47,10,3,10,0.00
2013-8-16,90,79,68,70,64,62,96,63,41,32.47,32.47,20,4,20,0.06
2013-8-17,91,79,67,63,60,56,82,54,32,32.47,32.47,15,4,15,0.00
2013-8-18,93,80,69,68,63,60,82,57,36,32.47,32.47,10,2,10,0.00
2013-8-19,97,83,70,68,63,58,80,53,29,32.47,32.47,11,2,11,0.00
2013-8-20,99,85,71,67,62,56,79,48,27,32.47,32.47,12,2,12,0.00
2013-8-21,97,85,72,72,66,62,85,55,36,32.47,32.47,14,2,14,0.00
2013-8-22,101,87,76,73,69,64,79,57,32,32.47,32.47,9,2,9,0.00
2013-8-23,102,90,79,74,68,62,76,50,30,32.47,32.47,16,3,16,0.00
2013-8-24,101,90,78,72,67,59,73,48,26,32.47,32.47,14,3,14,0.00
2013-8-25,99,89,79,72,67,62,74,50,31,32.47,32.47,14,4,14,0.00
2013-8-26,98,87,78,72,67,60,76,53,30,32.47,32.47,18,5,18,0.00
2013-8-27,95,83,75,73,70,66,88,67,39,32.47,32.47,21,4,21,0.00
2013-8-28,102,86,72,74,67,61,89,58,29,32.47,32.47,13,2,13,0.00
2013-8-29,104,88,72,72,66,60,87,52,24,32.47,32.47,10,2,10,0.00
2013-8-30,106,90,75,70,65,58,78,47,21,32.47,32.47,11,2,11,0.00
2013-8-31,108,91,76,70,64,55,71,45,19,32.47,32.47,10,2,10,0.00
2013-9-1,108,93,81,72,66,58,66,42,21,32.47,32.47,11,2,11,0.00
2013-9-2,93,82,76,78,73,70,95,77,52,32.47,32.47,8,1,8,0.22
2013-9-3,102,87,77,75,65,57,87,51,25,32.47,32.47,9,2,9,0.00
2013-9-4,103,88,73,72,66,59,85,51,28,32.47,32.47,12,3,12,0.00
2013-9-5,101,89,78,72,67,60,79,51,28,32.47,32.47,11,2,11,0.00
2013-9-6,104,90,75,72,65,59,78,47,25,32.47,32.47,11,2,11,0.00
2013-9-7,102,89,78,73,67,58,78,51,27,32.47,32.47,11,3,11,0.00
2013-9-8,99,86,71,73,66,60,91,55,31,32.47,32.47,11,3,11,0.00
2013-9-9,98,86,72,72,66,62,85,54,32,32.47,32.47,14,4,14,0.00
2013-9-10,95,84,76,74,67,59,83,58,31,32.47,32.47,13,3,13,0.00
2013-9-11,98,82,72,77,70,64,94,70,34,32.47,32.47,24,2,24,0.34
2013-9-12,98,85,71,74,68,63,97,61,33,32.47,32.47,7,1,7,0.01
2013-9-13,98,86,76,72,68,63,84,57,34,32.47,32.47,14,3,14,0.00
2013-9-14,95,86,77,68,63,60,63,49,35,32.47,32.47,16,6,16,0.00
2013-9-15,97,86,75,70,65,60,64,49,39,32.47,32.47,11,3,11,0.00
2013-9-16,99,87,74,73,66,59,84,52,29,32.47,32.47,11,2,11,0.00
2013-9-17,94,85,76,71,67,63,75,55,39,32.47,32.47,10,2,10,0.00
2013-9-18,100,87,76,73,66,59,79,51,28,32.47,32.47,14,3,15,0.00
2013-9-19,93,83,72,74,70,63,97,65,46,32.47,32.47,15,3,15,0.80
2013-9-20,74,73,70,73,71,64,98,94,83,32.47,32.47,16,4,16,1.33
2013-9-21,85,72,61,65,53,41,87,57,23,32.47,32.47,16,4,17,0.00
2013-9-22,85,70,55,64,54,45,99,64,28,32.47,32.47,14,2,14,0.00
2013-9-23,88,73,59,59,54,48,84,56,25,32.47,32.47,11,2,11,0.00
2013-9-24,95,78,64,70,58,43,95,57,20,32.47,32.47,14,1,14,0.00
2013-9-25,98,78,58,66,54,46,95,50,18,32.47,32.47,9,2,9,0.00
2013-9-26,96,82,67,62,56,50,73,42,22,32.47,32.47,15,3,15,0.00
2013-9-27,89,81,71,72,67,58,81,63,49,32.47,32.47,15,5,15,0.00
2013-9-28,86,77,68,79,71,62,96,84,70,32.47,32.47,17,5,17,0.47
2013-9-29,84,71,62,62,56,43,84,62,27,32.47,32.47,11,2,11,0.00
2013-9-30,90,72,55,66,56,44,99,64,21,32.47,32.47,11,2,11,0.00
2013-10-1,91,77,63,73,66,61,98,71,38,32.47,32.47,12,3,12,0.00
2013-10-2,91,81,74,73,71,67,93,74,47,32.47,32.47,17,5,17,0.00
2013-10-3,93,82,75,74,71,66,91,70,44,32.47,32.47,17,6,17,0.00
2013-10-4,91,82,74,72,70,66,90,68,45,32.47,32.47,21,7,21,0.00
2013-10-5,81,65,52,71,57,42,98,76,51,32.47,32.47,15,4,15,0.25
2013-10-6,78,61,46,56,39,15,99,58,10,32.47,32.47,14,2,14,0.01
2013-10-7,85,64,47,56,42,22,96,56,12,32.47,32.47,8,1,8,0.00
2013-10-8,85,66,48,57,46,36,96,56,19,32.47,32.47,11,2,11,0.00
2013-10-9,86,72,56,58,54,50,91,56,32,32.47,32.47,14,3,14,0.00
2013-10-10,86,73,59,65,60,54,89,65,42,32.47,32.47,16,4,16,0.00
2013-10-11,88,78,71,72,68,61,86,72,54,32.47,32.47,15,6,15,0.00
2013-10-12,96,79,70,76,72,66,97,81,40,32.47,32.47,17,3,17,0.30
2013-10-13,76,72,68,70,69,67,99,90,81,32.47,32.47,11,2,11,0.01
2013-10-14,75,72,69,75,70,68,99,96,89,32.47,32.47,16,4,16,0.59
2013-10-15,79,66,53,74,64,53,99,93,79,32.47,32.47,11,4,11,0.58
2013-10-16,66,58,53,54,50,46,98,76,53,32.47,32.47,13,3,13,0.17
2013-10-17,75,58,44,52,46,42,98,69,33,32.47,32.47,8,1,8,0.00
2013-10-18,70,60,50,61,53,47,99,79,51,32.47,32.47,14,2,14,0.09
2013-10-19,68,53,42,47,41,35,91,67,31,32.47,32.47,12,3,12,0.00
2013-10-20,73,62,41,54,44,39,99,56,29,32.47,32.47,19,5,19,0.00
2013-10-21,73,61,52,61,52,45,89,73,60,32.47,32.47,15,3,15,0.00
2013-10-22,79,59,41,52,44,35,99,67,23,32.47,32.47,11,1,11,0.00
2013-10-23,86,64,47,59,50,45,99,67,25,32.47,32.47,8,1,8,0.00
2013-10-24,81,66,50,57,49,43,92,57,31,32.47,32.47,11,3,11,0.00
2013-10-25,71,60,52,49,46,42,79,59,42,32.47,32.47,13,4,13,0.00
2013-10-26,78,65,57,64,57,48,99,75,61,32.47,32.47,18,4,18,1.36
2013-10-27,69,63,57,63,59,55,99,87,69,32.47,32.47,9,1,9,0.00
2013-10-28,76,67,54,68,63,53,99,87,71,32.47,32.47,14,3,14,0.00
2013-10-29,77,73,70,71,68,67,90,86,78,32.47,32.47,18,6,18,0.00
2013-10-30,73,70,67,70,68,65,96,92,85,32.47,32.47,21,6,21,0.05
2013-10-31,76,68,50,70,53,35,98,67,24,32.48,32.47,20,5,20,0.02
2013-11-1,79,61,45,58,47,40,99,65,28,32.48,32.48,14,2,14,0.00
2013-11-2,69,57,45,43,37,22,84,51,17,32.48,32.48,17,3,17,0.00
2013-11-3,69,56,40,47,41,35,97,63,32,32.48,32.48,17,4,17,0.00
2013-11-4,60,59,56,60,54,47,99,86,63,32.48,32.48,15,5,15,0.50
2013-11-5,70,66,60,68,64,60,99,96,90,32.48,32.48,14,4,14,0.11
2013-11-6,71,56,43,69,48,37,97,77,50,32.48,32.48,13,3,13,0.20
2013-11-7,66,50,36,44,38,30,98,71,29,32.48,32.48,10,1,10,0.00
2013-11-8,68,55,40,53,41,34,99,66,31,32.48,32.48,13,3,13,0.00
2013-11-9,72,62,56,54,48,44,72,62,49,32.48,32.48,17,4,17,0.00
2013-11-10,66,57,48,52,49,47,94,74,58,32.48,32.48,6,2,6,0.00
2013-11-11,77,59,44,57,50,44,99,78,44,32.48,32.48,8,1,8,0.00
2013-11-12,62,50,34,56,31,7,93,54,16,32.48,32.48,23,6,23,0.00
2013-11-13,54,39,27,30,22,14,83,54,21,32.48,32.48,8,1,8,0.00
2013-11-14,61,48,29,46,30,18,87,56,20,32.48,32.48,14,4,14,0.00
2013-11-15,75,62,51,59,52,46,91,71,44,32.48,32.48,12,4,12,0.00
2013-11-16,82,71,63,69,63,58,89,76,50,32.48,32.48,20,6,20,0.00
2013-11-17,90,76,63,70,55,36,91,55,19,32.48,32.48,15,4,15,0.00
2013-11-18,72,63,56,36,23,10,40,24,10,32.48,32.48,13,4,13,0.00
2013-11-19,70,62,56,38,32,20,46,34,15,32.48,32.48,15,5,15,0.00
2013-11-20,66,59,51,55,44,33,78,57,42,32.48,32.48,19,6,19,0.00
2013-11-21,76,64,40,70,61,39,96,89,78,32.48,32.48,18,5,18,0.26
2013-11-22,40,36,34,39,33,30,96,89,78,32.48,32.48,18,6,18,0.24
2013-11-23,43,38,35,37,33,22,98,83,53,32.48,29.92,15,6,15,0.02
2013-11-24,37,34,33,26,22,18,71,62,51,29.92,29.92,17,5,17,0.05
2013-11-25,38,35,32,36,32,25,95,90,69,29.92,29.92,8,2,8,0.41
2013-11-26,53,42,35,36,31,23,94,67,33,29.92,29.92,21,6,21,0.00
2013-11-27,47,36,27,23,16,4,76,48,18,29.92,29.92,17,3,17,0.00
2013-11-28,56,38,25,33,24,19,86,61,25,29.92,29.92,11,2,11,0.00
2013-11-29,60,44,27,41,32,22,94,67,37,29.92,29.92,12,3,12,0.00
2013-11-30,68,54,39,52,46,36,92,75,54,29.92,29.92,17,4,17,0.00
2013-12-1,70,58,49,59,53,47,98,83,63,29.92,29.92,16,3,16,0.00
2013-12-2,72,54,40,55,45,40,99,77,42,32.48,29.92,10,1,10,0.00
2013-12-3,78,55,39,52,39,22,98,65,12,32.48,32.12,11,1,11,0.00
2013-12-4,82,63,47,50,43,36,81,52,29,32.48,32.46,14,4,14,0.00
2013-12-5,50,34,28,37,24,16,95,66,45,32.48,32.48,19,8,19,0.01
2013-12-6,31,26,24,30,21,16,98,81,72,32.48,32.48,0,0,0,0.00
2013-12-7,26,23,20,21,16,12,83,75,70,32.48,32.48,0,0,0,0.00
2013-12-8,34,30,26,30,26,21,94,87,82,32.48,32.48,5,0,5,0.01
2013-12-9,34,32,28,30,26,18,97,79,62,32.48,32.48,0,0,0,0.00
2013-12-10,40,28,19,21,16,10,80,60,38,32.48,32.48,5,0,8,0.04
2013-12-11,45,33,23,33,25,19,90,72,49,32.48,32.48,10,2,10,0.00
2013-12-12,50,38,24,35,28,20,86,69,47,32.48,32.48,9,2,9,0.00
2013-12-13,46,44,41,45,38,32,95,79,64,32.48,32.48,13,5,13,0.00
2013-12-14,45,40,30,43,34,24,99,79,53,32.48,32.48,17,4,17,0.00
2013-12-15,64,43,26,36,27,20,91,60,19,32.48,32.48,11,1,11,0.00
2013-12-16,69,51,32,38,32,27,87,54,21,32.48,32.48,11,2,11,0.00
2013-12-17,72,50,33,41,34,24,93,61,17,32.48,32.48,8,1,8,0.00
2013-12-18,73,54,33,48,40,31,95,64,22,32.48,32.48,17,4,17,0.00
2013-12-19,74,63,54,62,55,47,88,74,55,32.48,32.48,23,8,23,0.00
2013-12-20,68,54,34,64,51,32,99,88,71,32.48,32.48,17,5,17,0.00
2013-12-21,52,43,34,51,42,32,99,98,93,32.48,32.48,14,3,14,1.20
2013-12-22,44,37,30,44,29,23,99,74,53,32.48,32.48,16,6,16,0.01
2013-12-23,48,35,25,30,25,20,88,67,41,32.48,32.48,7,2,7,0.00
2013-12-24,54,40,25,33,28,20,86,65,42,32.48,32.48,20,5,20,0.00
2013-12-25,60,44,33,43,34,26,85,69,42,32.48,32.48,18,4,18,0.00
2013-12-26,56,40,28,34,28,22,91,67,28,32.48,32.48,9,2,9,0.00
2013-12-27,60,42,29,40,32,26,93,71,41,32.48,32.48,7,1,7,0.00
2013-12-28,64,48,32,45,37,30,96,68,39,32.48,32.48,14,3,14,0.00
2013-12-29,48,38,31,41,31,22,92,77,60,32.48,32.48,19,4,19,0.00
2013-12-30,45,34,28,22,17,10,69,50,28,32.48,32.48,13,3,13,0.00
2013-12-31,56,40,24,32,23,17,84,53,22,32.48,32.48,12,3,12,0.00
2014-1-1,71,50,34,45,34,22,73,56,31,32.48,32.48,21,7,21,0.00
2014-1-2,44,32,24,22,15,11,65,51,27,32.48,32.48,18,6,18,0.00